datetime,ch4,hp.delta.ich4.raw,hp.delta.ich4.5min
2016-07-08T07:58:14,2.124,-54.74,-52.115
2016-07-08T07:58:15,2.124,-49.307,-52.104
2016-07-08T07:58:16,2.124,-50.582,-52.084
2016-07-08T07:58:17,2.124,-50.582,-52.084
2016-07-08T07:58:18,2.124,-52.999,-52.073
2016-07-08T07:58:20,2.124,-51.214,-52.071
2016-07-08T07:58:21,2.124,-51.214,-52.071
2016-07-08T07:58:22,2.124,-52.92,-52.071
2016-07-08T07:58:23,2.123,-60.686,-52.153
2016-07-08T07:58:24,2.123,-60.686,-52.153
2016-07-08T07:58:25,2.123,-55.147,-52.166
2016-07-08T07:58:27,2.123,-55.091,-52.192
2016-07-08T07:58:28,2.123,-55.091,-52.192
2016-07-08T07:58:28,2.122,-57.719,-52.225
2016-07-08T07:58:30,2.122,-51.215,-52.205
2016-07-08T07:58:31,2.122,-51.215,-52.205
2016-07-08T07:58:32,2.122,-45.752,-52.161
2016-07-08T07:58:33,2.12,-57.764,-52.212
2016-07-08T07:58:34,2.12,-57.764,-52.212
2016-07-08T07:58:35,2.12,-52.041,-52.23
2016-07-08T07:58:37,2.12,-57.262,-52.276
2016-07-08T07:58:38,2.12,-57.262,-52.276
2016-07-08T07:58:39,2.12,-51.804,-52.265
2016-07-08T07:58:40,2.12,-49.492,-52.254
2016-07-08T07:58:41,2.12,-49.492,-52.254
2016-07-08T07:58:42,2.118,-52.913,-52.23
2016-07-08T07:58:44,2.118,-54.317,-52.264
2016-07-08T07:58:45,2.118,-54.317,-52.264
2016-07-08T07:58:46,2.117,-48.165,-52.212
2016-07-08T07:58:47,2.117,-51.772,-52.209
2016-07-08T07:58:48,2.117,-51.772,-52.209
2016-07-08T07:58:49,2.117,-49.248,-52.19
2016-07-08T07:58:51,2.116,-53.267,-52.213
2016-07-08T07:58:51,2.116,-53.267,-52.213
2016-07-08T07:58:52,2.116,-56.997,-52.222
2016-07-08T07:58:54,2.116,-47.658,-52.203
2016-07-08T07:58:55,2.116,-47.658,-52.203
2016-07-08T07:58:56,2.116,-50.721,-52.206
2016-07-08T07:58:57,2.115,-51.467,-52.174
2016-07-08T07:58:58,2.115,-51.467,-52.174
2016-07-08T07:58:59,2.115,-52.668,-52.16
2016-07-08T07:59:01,2.115,-50.604,-52.15
2016-07-08T07:59:02,2.115,-50.604,-52.15
2016-07-08T07:59:03,2.115,-52.037,-52.129
2016-07-08T07:59:04,2.115,-48.355,-52.115
2016-07-08T07:59:05,2.115,-48.355,-52.115
2016-07-08T07:59:06,2.116,-48.318,-52.095
2016-07-08T07:59:08,2.116,-54.642,-52.134
2016-07-08T07:59:09,2.116,-54.642,-52.134
2016-07-08T07:59:10,2.116,-50.425,-52.126
2016-07-08T07:59:11,2.116,-51.819,-52.131
2016-07-08T07:59:12,2.116,-51.819,-52.131
2016-07-08T07:59:13,2.117,-52.892,-52.126
2016-07-08T07:59:15,2.117,-52.889,-52.151
2016-07-08T07:59:15,2.117,-52.889,-52.151
2016-07-08T07:59:16,2.117,-50.307,-52.156
2016-07-08T07:59:18,2.118,-47.795,-52.123
2016-07-08T07:59:19,2.118,-47.795,-52.123
2016-07-08T07:59:20,2.118,-49.96,-52.139
2016-07-08T07:59:21,2.118,-45.122,-52.071
2016-07-08T07:59:22,2.118,-45.122,-52.071
2016-07-08T07:59:23,2.119,-50.228,-52.046
2016-07-08T07:59:25,2.119,-55.033,-52.026
2016-07-08T07:59:26,2.119,-55.033,-52.026
2016-07-08T07:59:27,2.119,-51.015,-52.024
2016-07-08T07:59:28,2.119,-53.086,-52.043
2016-07-08T07:59:29,2.119,-53.086,-52.043
2016-07-08T07:59:30,2.12,-50.577,-52.03
2016-07-08T07:59:32,2.12,-58.775,-52.077
2016-07-08T07:59:32,2.12,-58.775,-52.077
2016-07-08T07:59:33,2.12,-51.58,-52.083
2016-07-08T07:59:35,2.121,-47.826,-52.062
2016-07-08T07:59:36,2.121,-47.826,-52.062
2016-07-08T07:59:37,2.121,-48.729,-52.039
2016-07-08T07:59:38,2.121,-50.5,-52.037
2016-07-08T07:59:39,2.121,-50.5,-52.037
2016-07-08T07:59:40,2.121,-50.988,-52.039
2016-07-08T07:59:42,2.121,-50.291,-52.039
2016-07-08T07:59:43,2.121,-50.291,-52.039
2016-07-08T07:59:44,2.122,-48.479,-51.982
2016-07-08T07:59:45,2.122,-56.136,-52.004
2016-07-08T07:59:46,2.122,-56.136,-52.004
2016-07-08T07:59:47,2.122,-56.579,-52.065
2016-07-08T07:59:49,2.123,-54.026,-52.095
2016-07-08T07:59:50,2.123,-54.026,-52.095
2016-07-08T07:59:51,2.124,-50.273,-52.083
2016-07-08T07:59:52,2.124,-50.134,-52.083
2016-07-08T07:59:53,2.124,-50.134,-52.083
2016-07-08T07:59:54,2.124,-53.508,-52.101
2016-07-08T07:59:55,2.124,-55.749,-52.134
2016-07-08T07:59:56,2.124,-55.749,-52.134
2016-07-08T07:59:57,2.125,-51.343,-52.104
2016-07-08T07:59:59,2.124,-57.774,-52.124
2016-07-08T08:00:00,2.124,-57.774,-52.124
2016-07-08T08:00:01,2.125,-49.562,-52.1
2016-07-08T08:00:02,2.125,-51.516,-52.097
2016-07-08T08:00:03,2.125,-51.516,-52.097
2016-07-08T08:00:04,2.125,-51.909,-52.074
2016-07-08T08:00:06,2.124,-54.244,-52.111
2016-07-08T08:00:07,2.124,-54.244,-52.111
2016-07-08T08:00:08,2.124,-47.885,-52.096
2016-07-08T08:00:09,2.125,-52.315,-52.086
2016-07-08T08:00:10,2.125,-52.315,-52.086
2016-07-08T08:00:11,2.125,-50.694,-52.058
2016-07-08T08:00:13,2.124,-52.836,-52.089
2016-07-08T08:00:13,2.124,-52.836,-52.089
2016-07-08T08:00:14,2.124,-52.393,-52.083
2016-07-08T08:00:16,2.123,-52.331,-52.089
2016-07-08T08:00:17,2.123,-52.331,-52.089
2016-07-08T08:00:18,2.124,-53.846,-52.107
2016-07-08T08:00:19,2.123,-50.775,-52.104
2016-07-08T08:00:20,2.123,-50.775,-52.104
2016-07-08T08:00:21,2.123,-51.709,-52.099
2016-07-08T08:00:23,2.123,-53.473,-52.122
2016-07-08T08:00:24,2.123,-53.473,-52.122
2016-07-08T08:00:25,2.122,-53.488,-52.15
2016-07-08T08:00:26,2.123,-50.2,-52.1
2016-07-08T08:00:27,2.123,-50.2,-52.1
2016-07-08T08:00:28,2.122,-48.84,-52.062
2016-07-08T08:00:30,2.123,-53.063,-52.079
2016-07-08T08:00:30,2.123,-53.063,-52.079
2016-07-08T08:00:31,2.122,-46.322,-52.074
2016-07-08T08:00:33,2.122,-52.093,-52.069
2016-07-08T08:00:34,2.122,-52.093,-52.069
2016-07-08T08:00:35,2.123,-50.127,-52.053
2016-07-08T08:00:36,2.122,-52.093,-52.044
2016-07-08T08:00:37,2.122,-52.093,-52.044
2016-07-08T08:00:38,2.122,-56.038,-52.084
2016-07-08T08:00:40,2.122,-49.657,-52.076
2016-07-08T08:00:41,2.122,-49.657,-52.076
2016-07-08T08:00:42,2.123,-52.303,-52.059
2016-07-08T08:00:43,2.123,-62.69,-52.114
2016-07-08T08:00:44,2.123,-62.69,-52.114
2016-07-08T08:00:45,2.123,-49.733,-52.095
2016-07-08T08:00:47,2.123,-55.419,-52.09
2016-07-08T08:00:48,2.123,-55.419,-52.09
2016-07-08T08:00:49,2.123,-52.689,-52.11
2016-07-08T08:00:50,2.123,-49.694,-52.1
2016-07-08T08:00:51,2.123,-49.694,-52.1
2016-07-08T08:00:52,2.122,-55.052,-52.124
2016-07-08T08:00:54,2.123,-50.674,-52.166
2016-07-08T08:00:54,2.123,-50.674,-52.166
2016-07-08T08:00:55,2.123,-55.09,-52.181
2016-07-08T08:00:57,2.123,-57.381,-52.212
2016-07-08T08:00:58,2.123,-57.381,-52.212
2016-07-08T08:00:59,2.123,-52.094,-52.226
2016-07-08T08:01:00,2.123,-53.067,-52.226
2016-07-08T08:01:01,2.123,-53.067,-52.226
2016-07-08T08:01:02,2.123,-52.828,-52.221
2016-07-08T08:01:04,2.123,-49.818,-52.224
2016-07-08T08:01:05,2.123,-49.818,-52.224
2016-07-08T08:01:06,2.122,-44.105,-52.172
2016-07-08T08:01:07,2.121,-53.247,-52.17
2016-07-08T08:01:08,2.121,-53.247,-52.17
2016-07-08T08:01:09,2.122,-50.569,-52.159
2016-07-08T08:01:11,2.122,-50.416,-52.151
2016-07-08T08:01:12,2.122,-50.416,-52.151
2016-07-08T08:01:13,2.121,-51.243,-52.137
2016-07-08T08:01:14,2.122,-55.625,-52.201
2016-07-08T08:01:15,2.122,-55.625,-52.201
2016-07-08T08:01:16,2.121,-57.177,-52.234
2016-07-08T08:01:18,2.121,-55.869,-52.265
2016-07-08T08:01:18,2.121,-55.869,-52.265
2016-07-08T08:01:19,2.121,-51.251,-52.241
2016-07-08T08:01:21,2.121,-51.431,-52.236
2016-07-08T08:01:22,2.121,-51.431,-52.236
2016-07-08T08:01:23,2.121,-50.407,-52.204
2016-07-08T08:01:24,2.12,-51.772,-52.23
2016-07-08T08:01:25,2.12,-51.772,-52.23
2016-07-08T08:01:26,2.12,-51.379,-52.21
2016-07-08T08:01:28,2.12,-57.785,-52.265
2016-07-08T08:01:29,2.12,-57.785,-52.265
2016-07-08T08:01:30,2.12,-52.58,-52.259
2016-07-08T08:01:31,2.12,-56.002,-52.305
2016-07-08T08:01:32,2.12,-56.002,-52.305
2016-07-08T08:01:33,2.12,-49.627,-52.305
2016-07-08T08:01:35,2.12,-55.083,-52.31
2016-07-08T08:01:36,2.12,-55.083,-52.31
2016-07-08T08:01:37,2.12,-50.942,-52.295
2016-07-08T08:01:38,2.119,-47.897,-52.264
2016-07-08T08:01:39,2.119,-47.897,-52.264
2016-07-08T08:01:40,2.119,-49.427,-52.268
2016-07-08T08:01:42,2.12,-54.637,-52.296
2016-07-08T08:01:42,2.12,-54.637,-52.296
2016-07-08T08:01:43,2.121,-54.765,-52.294
2016-07-08T08:01:45,2.12,-52.899,-52.281
2016-07-08T08:01:46,2.12,-52.899,-52.281
2016-07-08T08:01:47,2.12,-50.697,-52.323
2016-07-08T08:01:48,2.12,-55.398,-52.352
2016-07-08T08:01:49,2.12,-55.398,-52.352
2016-07-08T08:01:50,2.12,-57.361,-52.341
2016-07-08T08:01:52,2.121,-49.768,-52.336
2016-07-08T08:01:53,2.121,-49.768,-52.336
2016-07-08T08:01:54,2.122,-52.989,-52.335
2016-07-08T08:01:55,2.122,-50.898,-52.321
2016-07-08T08:01:56,2.122,-50.898,-52.321
2016-07-08T08:01:57,2.123,-57.04,-52.347
2016-07-08T08:01:59,2.122,-48.753,-52.312
2016-07-08T08:01:59,2.122,-48.753,-52.312
2016-07-08T08:02:00,2.123,-49.958,-52.292
2016-07-08T08:02:02,2.124,-49.888,-52.281
2016-07-08T08:02:03,2.124,-49.888,-52.281
2016-07-08T08:02:04,2.124,-53.916,-52.286
2016-07-08T08:02:05,2.125,-46.136,-52.267
2016-07-08T08:02:06,2.125,-46.136,-52.267
2016-07-08T08:02:07,2.126,-53.022,-52.267
2016-07-08T08:02:09,2.127,-51.377,-52.27
2016-07-08T08:02:10,2.127,-51.377,-52.27
2016-07-08T08:02:11,2.128,-49.783,-52.244
2016-07-08T08:02:12,2.128,-48.782,-52.217
2016-07-08T08:02:13,2.128,-48.782,-52.217
2016-07-08T08:02:14,2.129,-59.904,-52.266
2016-07-08T08:02:16,2.131,-45.508,-52.251
2016-07-08T08:02:16,2.131,-45.508,-52.251
2016-07-08T08:02:17,2.131,-52.024,-52.215
2016-07-08T08:02:19,2.132,-49.7,-52.209
2016-07-08T08:02:20,2.132,-49.7,-52.209
2016-07-08T08:02:21,2.133,-49.246,-52.22
2016-07-08T08:02:22,2.133,-49.881,-52.193
2016-07-08T08:02:23,2.133,-49.881,-52.193
2016-07-08T08:02:24,2.135,-52.185,-52.173
2016-07-08T08:02:26,2.135,-48.353,-52.144
2016-07-08T08:02:27,2.135,-48.353,-52.144
2016-07-08T08:02:28,2.136,-55.405,-52.197
2016-07-08T08:02:29,2.137,-52.973,-52.193
2016-07-08T08:02:30,2.137,-52.973,-52.193
2016-07-08T08:02:31,2.138,-51.203,-52.218
2016-07-08T08:02:33,2.14,-49.521,-52.204
2016-07-08T08:02:34,2.14,-49.521,-52.204
2016-07-08T08:02:35,2.141,-46.063,-52.173
2016-07-08T08:02:36,2.142,-49.421,-52.18
2016-07-08T08:02:37,2.142,-49.421,-52.18
2016-07-08T08:02:38,2.143,-49.657,-52.115
2016-07-08T08:02:40,2.145,-55.717,-52.13
2016-07-08T08:02:41,2.145,-55.717,-52.13
2016-07-08T08:02:41,2.146,-53.843,-52.153
2016-07-08T08:02:43,2.147,-51.245,-52.119
2016-07-08T08:02:44,2.147,-51.245,-52.119
2016-07-08T08:02:45,2.148,-55.918,-52.133
2016-07-08T08:02:46,2.149,-54.817,-52.139
2016-07-08T08:02:47,2.149,-54.817,-52.139
2016-07-08T08:02:48,2.151,-53.109,-52.148
2016-07-08T08:02:50,2.152,-56.958,-52.19
2016-07-08T08:02:51,2.152,-56.958,-52.19
2016-07-08T08:02:52,2.154,-53.511,-52.201
2016-07-08T08:02:53,2.154,-57.388,-52.223
2016-07-08T08:02:54,2.154,-57.388,-52.223
2016-07-08T08:02:55,2.156,-48.021,-52.195
2016-07-08T08:02:57,2.158,-47.547,-52.175
2016-07-08T08:02:57,2.158,-47.547,-52.175
2016-07-08T08:02:58,2.158,-52.281,-52.156
2016-07-08T08:03:00,2.16,-47.364,-52.145
2016-07-08T08:03:01,2.16,-47.364,-52.145
2016-07-08T08:03:02,2.161,-56.498,-52.143
2016-07-08T08:03:03,2.163,-55.087,-52.142
2016-07-08T08:03:04,2.163,-55.087,-52.142
2016-07-08T08:03:05,2.163,-48.849,-52.124
2016-07-08T08:03:07,2.166,-52.881,-52.139
2016-07-08T08:03:08,2.166,-52.881,-52.139
2016-07-08T08:03:09,2.167,-50.313,-52.113
2016-07-08T08:03:10,2.168,-51.59,-52.103
2016-07-08T08:03:11,2.168,-51.59,-52.103
2016-07-08T08:03:12,2.169,-45.514,-52.046
2016-07-08T08:03:14,2.17,-49.874,-52.018
2016-07-08T08:03:15,2.17,-49.874,-52.018
2016-07-08T08:03:16,2.172,-51.114,-52.028
2016-07-08T08:03:17,2.172,-45.657,-52
2016-07-08T08:03:18,2.172,-45.657,-52
2016-07-08T08:03:19,2.172,-50.806,-51.988
2016-07-08T08:03:21,2.173,-53.165,-51.999
2016-07-08T08:03:21,2.173,-53.165,-51.999
2016-07-08T08:03:22,2.174,-52.445,-51.996
2016-07-08T08:03:24,2.175,-59.486,-51.989
2016-07-08T08:03:25,2.175,-59.486,-51.989
2016-07-08T08:03:26,2.175,-57.956,-52.005
2016-07-08T08:03:27,2.177,-56.298,-52.012
2016-07-08T08:03:28,2.177,-56.298,-52.012
2016-07-08T08:03:29,2.176,-50.865,-51.973
2016-07-08T08:03:31,2.176,-49.985,-51.966
2016-07-08T08:03:32,2.176,-49.985,-51.966
2016-07-08T08:03:33,2.176,-56.572,-52.028
2016-07-08T08:03:34,2.176,-52.632,-51.999
2016-07-08T08:03:35,2.176,-52.632,-51.999
2016-07-08T08:03:36,2.176,-54.079,-52.01
2016-07-08T08:03:38,2.176,-51.948,-51.98
2016-07-08T08:03:38,2.176,-51.948,-51.98
2016-07-08T08:03:39,2.176,-51.557,-51.979
2016-07-08T08:03:41,2.176,-48.826,-51.975
2016-07-08T08:03:42,2.176,-48.826,-51.975
2016-07-08T08:03:43,2.175,-51.211,-51.965
2016-07-08T08:03:44,2.175,-50.923,-51.946
2016-07-08T08:03:45,2.175,-50.923,-51.946
2016-07-08T08:03:46,2.174,-52.461,-51.97
2016-07-08T08:03:48,2.174,-51.509,-51.969
2016-07-08T08:03:49,2.174,-51.509,-51.969
2016-07-08T08:03:50,2.174,-52.732,-51.989
2016-07-08T08:03:51,2.174,-46.373,-51.949
2016-07-08T08:03:52,2.174,-46.373,-51.949
2016-07-08T08:03:53,2.173,-54.358,-51.934
2016-07-08T08:03:55,2.173,-50.901,-51.953
2016-07-08T08:03:56,2.173,-50.901,-51.953
2016-07-08T08:03:57,2.172,-52.859,-51.965
2016-07-08T08:03:58,2.171,-56.127,-51.992
2016-07-08T08:03:59,2.171,-56.127,-51.992
2016-07-08T08:04:00,2.172,-50.314,-51.978
2016-07-08T08:04:02,2.17,-54.449,-52
2016-07-08T08:04:02,2.17,-54.449,-52
2016-07-08T08:04:03,2.17,-53.663,-52.009
2016-07-08T08:04:05,2.169,-54.357,-52.043
2016-07-08T08:04:06,2.169,-54.357,-52.043
2016-07-08T08:04:07,2.169,-52.502,-52.067
2016-07-08T08:04:08,2.169,-54.521,-52.066
2016-07-08T08:04:09,2.169,-54.521,-52.066
2016-07-08T08:04:10,2.168,-55.808,-52.097
2016-07-08T08:04:12,2.167,-53.749,-52.108
2016-07-08T08:04:13,2.167,-53.749,-52.108
2016-07-08T08:04:14,2.167,-48.248,-52.082
2016-07-08T08:04:15,2.166,-54.989,-52.094
2016-07-08T08:04:16,2.166,-54.989,-52.094
2016-07-08T08:04:17,2.165,-55.127,-52.121
2016-07-08T08:04:19,2.165,-57.433,-52.176
2016-07-08T08:04:20,2.165,-57.433,-52.176
2016-07-08T08:04:21,2.164,-54.723,-52.203
2016-07-08T08:04:22,2.164,-55.647,-52.263
2016-07-08T08:04:23,2.164,-55.647,-52.263
2016-07-08T08:04:24,2.163,-53.983,-52.284
2016-07-08T08:04:26,2.163,-49.554,-52.253
2016-07-08T08:04:26,2.163,-49.554,-52.253
2016-07-08T08:04:27,2.162,-54.75,-52.274
2016-07-08T08:04:29,2.162,-52.133,-52.269
2016-07-08T08:04:30,2.162,-52.133,-52.269
2016-07-08T08:04:31,2.161,-52.882,-52.282
2016-07-08T08:04:32,2.16,-52.369,-52.245
2016-07-08T08:04:33,2.16,-52.369,-52.245
2016-07-08T08:04:34,2.159,-56.748,-52.275
2016-07-08T08:04:36,2.158,-49.357,-52.283
2016-07-08T08:04:37,2.158,-49.357,-52.283
2016-07-08T08:04:38,2.157,-50.687,-52.294
2016-07-08T08:04:39,2.156,-54.738,-52.319
2016-07-08T08:04:40,2.156,-54.738,-52.319
2016-07-08T08:04:41,2.154,-50.428,-52.315
2016-07-08T08:04:43,2.153,-58.715,-52.363
2016-07-08T08:04:43,2.153,-58.715,-52.363
2016-07-08T08:04:44,2.152,-55.809,-52.405
2016-07-08T08:04:46,2.15,-50.347,-52.372
2016-07-08T08:04:47,2.15,-50.347,-52.372
2016-07-08T08:04:48,2.147,-54.055,-52.358
2016-07-08T08:04:49,2.146,-50.694,-52.339
2016-07-08T08:04:50,2.146,-50.694,-52.339
2016-07-08T08:04:51,2.143,-57.825,-52.382
2016-07-08T08:04:53,2.141,-53.733,-52.402
2016-07-08T08:04:54,2.141,-53.733,-52.402
2016-07-08T08:04:55,2.138,-46.687,-52.363
2016-07-08T08:04:56,2.136,-50.904,-52.336
2016-07-08T08:04:57,2.136,-50.904,-52.336
2016-07-08T08:04:58,2.134,-51.264,-52.335
2016-07-08T08:05:00,2.132,-50.788,-52.296
2016-07-08T08:05:01,2.132,-50.788,-52.296
2016-07-08T08:05:02,2.13,-45.896,-52.275
2016-07-08T08:05:03,2.127,-51.775,-52.276
2016-07-08T08:05:04,2.127,-51.775,-52.276
2016-07-08T08:05:05,2.125,-46.518,-52.246
2016-07-08T08:05:07,2.124,-53.683,-52.242
2016-07-08T08:05:07,2.124,-53.683,-52.242
2016-07-08T08:05:08,2.121,-53.078,-52.272
2016-07-08T08:05:10,2.121,-49.161,-52.254
2016-07-08T08:05:11,2.121,-49.161,-52.254
2016-07-08T08:05:12,2.118,-45.715,-52.226
2016-07-08T08:05:13,2.117,-51.682,-52.219
2016-07-08T08:05:14,2.117,-51.682,-52.219
2016-07-08T08:05:15,2.114,-51.311,-52.213
2016-07-08T08:05:17,2.113,-49.841,-52.199
2016-07-08T08:05:18,2.113,-49.841,-52.199
2016-07-08T08:05:19,2.112,-51.154,-52.184
2016-07-08T08:05:20,2.111,-48.532,-52.171
2016-07-08T08:05:21,2.111,-48.532,-52.171
2016-07-08T08:05:22,2.11,-51.541,-52.17
2016-07-08T08:05:24,2.109,-48.912,-52.144
2016-07-08T08:05:25,2.109,-48.912,-52.144
2016-07-08T08:05:26,2.108,-48.052,-52.113
2016-07-08T08:05:27,2.106,-46.278,-52.091
2016-07-08T08:05:28,2.106,-46.278,-52.091
2016-07-08T08:05:29,2.105,-52.96,-52.114
2016-07-08T08:05:31,2.105,-46.999,-52.08
2016-07-08T08:05:31,2.105,-46.999,-52.08
2016-07-08T08:05:32,2.103,-50.795,-52.105
2016-07-08T08:05:34,2.102,-54.456,-52.119
2016-07-08T08:05:35,2.102,-54.456,-52.119
2016-07-08T08:05:36,2.101,-56.531,-52.155
2016-07-08T08:05:37,2.1,-50.855,-52.148
2016-07-08T08:05:38,2.1,-50.855,-52.148
2016-07-08T08:05:39,2.099,-48.59,-52.106
2016-07-08T08:05:41,2.1,-55.934,-52.141
2016-07-08T08:05:42,2.1,-55.934,-52.141
2016-07-08T08:05:43,2.098,-50.689,-52.132
2016-07-08T08:05:44,2.098,-50.67,-52.064
2016-07-08T08:05:45,2.098,-50.67,-52.064
2016-07-08T08:05:46,2.098,-50.264,-52.067
2016-07-08T08:05:48,2.097,-61.831,-52.103
2016-07-08T08:05:48,2.097,-61.831,-52.103
2016-07-08T08:05:49,2.097,-49.528,-52.085
2016-07-08T08:05:51,2.097,-50.242,-52.088
2016-07-08T08:05:52,2.097,-50.242,-52.088
2016-07-08T08:05:53,2.096,-57.527,-52.103
2016-07-08T08:05:54,2.096,-51.785,-52.109
2016-07-08T08:05:55,2.096,-51.785,-52.109
2016-07-08T08:05:56,2.095,-50.177,-52.081
2016-07-08T08:05:58,2.096,-43.943,-52.005
2016-07-08T08:05:59,2.096,-43.943,-52.005
2016-07-08T08:06:00,2.096,-51.93,-52.004
2016-07-08T08:06:01,2.096,-51.04,-51.992
2016-07-08T08:06:02,2.096,-51.04,-51.992
2016-07-08T08:06:03,2.095,-57.335,-52.018
2016-07-08T08:06:05,2.095,-51.91,-52.03
2016-07-08T08:06:06,2.095,-51.91,-52.03
2016-07-08T08:06:07,2.095,-57.92,-52.108
2016-07-08T08:06:08,2.096,-49.097,-52.085
2016-07-08T08:06:09,2.096,-49.097,-52.085
2016-07-08T08:06:10,2.096,-51.633,-52.091
2016-07-08T08:06:12,2.096,-51.521,-52.097
2016-07-08T08:06:12,2.096,-51.521,-52.097
2016-07-08T08:06:13,2.095,-53.037,-52.107
2016-07-08T08:06:15,2.096,-50.75,-52.079
2016-07-08T08:06:16,2.096,-50.75,-52.079
2016-07-08T08:06:17,2.097,-46.172,-52.017
2016-07-08T08:06:18,2.096,-48.568,-51.975
2016-07-08T08:06:19,2.096,-48.568,-51.975
2016-07-08T08:06:20,2.096,-57.709,-52.012
2016-07-08T08:06:22,2.097,-57.018,-52.044
2016-07-08T08:06:23,2.097,-57.018,-52.044
2016-07-08T08:06:24,2.097,-55.407,-52.072
2016-07-08T08:06:25,2.097,-52.995,-52.079
2016-07-08T08:06:26,2.097,-52.995,-52.079
2016-07-08T08:06:27,2.098,-54.53,-52.097
2016-07-08T08:06:29,2.097,-54.132,-52.076
2016-07-08T08:06:29,2.097,-54.132,-52.076
2016-07-08T08:06:30,2.097,-54.556,-52.088
2016-07-08T08:06:32,2.097,-56.572,-52.091
2016-07-08T08:06:33,2.097,-56.572,-52.091
2016-07-08T08:06:34,2.098,-56.731,-52.131
2016-07-08T08:06:35,2.098,-54.951,-52.13
2016-07-08T08:06:36,2.098,-54.951,-52.13
2016-07-08T08:06:37,2.098,-50.249,-52.126
2016-07-08T08:06:39,2.098,-53.384,-52.158
2016-07-08T08:06:40,2.098,-53.384,-52.158
2016-07-08T08:06:41,2.099,-49.898,-52.16
2016-07-08T08:06:42,2.099,-45.591,-52.109
2016-07-08T08:06:43,2.099,-45.591,-52.109
2016-07-08T08:06:44,2.099,-48.625,-52.074
2016-07-08T08:06:46,2.1,-59.219,-52.11
2016-07-08T08:06:47,2.1,-59.219,-52.11
2016-07-08T08:06:48,2.1,-50.872,-52.111
2016-07-08T08:06:49,2.101,-53.61,-52.101
2016-07-08T08:06:50,2.101,-53.61,-52.101
2016-07-08T08:06:51,2.102,-47.04,-52.042
2016-07-08T08:06:53,2.102,-50.713,-52.047
2016-07-08T08:06:53,2.102,-50.713,-52.047
2016-07-08T08:06:54,2.103,-48.399,-52.021
2016-07-08T08:06:56,2.103,-51.009,-52.022
2016-07-08T08:06:57,2.103,-51.009,-52.022
2016-07-08T08:06:58,2.104,-49.959,-51.982
2016-07-08T08:06:59,2.104,-49.711,-51.987
2016-07-08T08:07:00,2.104,-49.711,-51.987
2016-07-08T08:07:01,2.104,-50.017,-51.988
2016-07-08T08:07:03,2.105,-54.137,-52.012
2016-07-08T08:07:04,2.105,-54.137,-52.012
2016-07-08T08:07:05,2.106,-54.851,-52.017
2016-07-08T08:07:06,2.106,-50.483,-52.042
2016-07-08T08:07:07,2.106,-50.483,-52.042
2016-07-08T08:07:08,2.107,-52.375,-52.038
2016-07-08T08:07:10,2.107,-57.273,-52.072
2016-07-08T08:07:10,2.107,-57.273,-52.072
2016-07-08T08:07:11,2.108,-50.909,-52.078
2016-07-08T08:07:13,2.108,-46.828,-52.067
2016-07-08T08:07:14,2.108,-46.828,-52.067
2016-07-08T08:07:15,2.108,-48.225,-52
2016-07-08T08:07:16,2.108,-50.646,-52.03
2016-07-08T08:07:17,2.108,-50.646,-52.03
2016-07-08T08:07:18,2.109,-53.577,-52.038
2016-07-08T08:07:20,2.108,-53.227,-52.059
2016-07-08T08:07:21,2.108,-53.227,-52.059
2016-07-08T08:07:22,2.109,-47.088,-52.046
2016-07-08T08:07:23,2.109,-51.334,-52.055
2016-07-08T08:07:24,2.109,-51.334,-52.055
2016-07-08T08:07:25,2.109,-51.857,-52.053
2016-07-08T08:07:27,2.109,-54.408,-52.087
2016-07-08T08:07:28,2.109,-54.408,-52.087
2016-07-08T08:07:29,2.109,-50.804,-52.061
2016-07-08T08:07:30,2.108,-49.913,-52.044
2016-07-08T08:07:31,2.108,-49.913,-52.044
2016-07-08T08:07:32,2.109,-56.693,-52.075
2016-07-08T08:07:34,2.109,-45.78,-52.053
2016-07-08T08:07:34,2.109,-45.78,-52.053
2016-07-08T08:07:35,2.107,-58.843,-52.126
2016-07-08T08:07:37,2.108,-49.41,-52.126
2016-07-08T08:07:38,2.108,-49.41,-52.126
2016-07-08T08:07:39,2.107,-51.526,-52.137
2016-07-08T08:07:40,2.107,-50.213,-52.105
2016-07-08T08:07:41,2.107,-50.213,-52.105
2016-07-08T08:07:42,2.107,-48.734,-52.076
2016-07-08T08:07:44,2.107,-54.791,-52.096
2016-07-08T08:07:45,2.107,-54.791,-52.096
2016-07-08T08:07:46,2.106,-57.474,-52.105
2016-07-08T08:07:47,2.106,-48.425,-52.069
2016-07-08T08:07:48,2.106,-48.425,-52.069
2016-07-08T08:07:49,2.106,-54.889,-52.079
2016-07-08T08:07:51,2.106,-48.565,-52.031
2016-07-08T08:07:52,2.106,-48.565,-52.031
2016-07-08T08:07:53,2.105,-51.634,-52.021
2016-07-08T08:07:54,2.105,-55.234,-52.009
2016-07-08T08:07:55,2.105,-55.234,-52.009
2016-07-08T08:07:56,2.105,-57.37,-52.062
2016-07-08T08:07:58,2.104,-49.213,-52.071
2016-07-08T08:07:58,2.104,-49.213,-52.071
2016-07-08T08:07:59,2.104,-50.131,-52.059
2016-07-08T08:08:01,2.104,-54.289,-52.098
2016-07-08T08:08:02,2.104,-54.289,-52.098
2016-07-08T08:08:03,2.104,-51.422,-52.069
2016-07-08T08:08:04,2.105,-52.728,-52.056
2016-07-08T08:08:05,2.105,-52.728,-52.056
2016-07-08T08:08:06,2.103,-51.65,-52.072
2016-07-08T08:08:08,2.104,-45.711,-52.031
2016-07-08T08:08:09,2.104,-45.711,-52.031
2016-07-08T08:08:10,2.105,-52.653,-52.044
2016-07-08T08:08:11,2.104,-44.426,-52.004
2016-07-08T08:08:12,2.104,-44.426,-52.004
2016-07-08T08:08:13,2.105,-51.972,-52.04
2016-07-08T08:08:15,2.106,-51.092,-52.047
2016-07-08T08:08:15,2.106,-51.092,-52.047
2016-07-08T08:08:16,2.106,-50.093,-52.042
2016-07-08T08:08:18,2.106,-52.141,-52.078
2016-07-08T08:08:19,2.106,-52.141,-52.078
2016-07-08T08:08:20,2.107,-49.565,-52.071
2016-07-08T08:08:21,2.108,-57.938,-52.099
2016-07-08T08:08:22,2.108,-57.938,-52.099
2016-07-08T08:08:23,2.108,-56.217,-52.12
2016-07-08T08:08:25,2.109,-52.873,-52.082
2016-07-08T08:08:26,2.109,-52.873,-52.082
2016-07-08T08:08:27,2.111,-55.292,-52.067
2016-07-08T08:08:28,2.111,-50.841,-52.036
2016-07-08T08:08:29,2.111,-50.841,-52.036
2016-07-08T08:08:30,2.112,-52.064,-52.043
2016-07-08T08:08:32,2.112,-55.717,-52.076
2016-07-08T08:08:33,2.112,-55.717,-52.076
2016-07-08T08:08:34,2.113,-51.24,-52.045
2016-07-08T08:08:35,2.114,-53.571,-52.051
2016-07-08T08:08:36,2.114,-53.571,-52.051
2016-07-08T08:08:37,2.114,-54.94,-52.056
2016-07-08T08:08:39,2.115,-48.151,-52.034
2016-07-08T08:08:39,2.115,-48.151,-52.034
2016-07-08T08:08:40,2.116,-53.972,-52.048
2016-07-08T08:08:42,2.117,-46.955,-52.037
2016-07-08T08:08:43,2.117,-46.955,-52.037
2016-07-08T08:08:44,2.117,-48.55,-52.022
2016-07-08T08:08:45,2.118,-46.366,-51.996
2016-07-08T08:08:46,2.118,-46.366,-51.996
2016-07-08T08:08:47,2.119,-51.721,-51.992
2016-07-08T08:08:49,2.12,-59.173,-52.035
2016-07-08T08:08:50,2.12,-59.173,-52.035
2016-07-08T08:08:51,2.121,-60.259,-52.078
2016-07-08T08:08:52,2.121,-51.581,-52.108